Weather History for KNFG - January, 2014

Change the Weather History Date:

Tuesday, January 14, 2014

  Actual Average (KOKB) Record (KOKB)
Temperature  
Mean Temperature 62 °F 53 °F  
Max Temperature 89 °F 66 °F 85 °F (2014)
Min Temperature 35 °F 40 °F 27 °F (2013)
Degree Days  
Heating Degree Days 3 12  
Month to date heating degree days 173  
Since 1 July heating degree days 907  
Cooling Degree Days 0 0  
Month to date cooling degree days 0  
Year to date cooling degree days 0  
Growing Degree Days 12 (Base 50)    
Moisture  
Dew Point 12 °F    
Average Humidity 22    
Maximum Humidity 54    
Minimum Humidity 4    
Precipitation  
Precipitation 0.00 in 0.09 in 0.03 in (2006)
Month to date precipitation 1.51  
Year to date precipitation 1.51  
Since 1 July precipitation 5.90  
Snow  
Snow 0.00 in - - ()
Month to date snowfall  
Year to date snowfall  
Since 1 July snowfall  
Snow Depth -    
Sea Level Pressure  
Sea Level Pressure 30.22 in    
Wind  
Wind Speed 5 mph (NE)    
Max Wind Speed 14 mph    
Max Gust Speed 21 mph    
Visibility 9 miles    
Events      
T = Trace of Precipitation, MM = Missing Value Source: NWS Daily Summary

Daily Weather History Graph

Daily Weather History Graph

Search for Another Location

Airport or City:

Trip Planner

Search our weather history database for the weather conditions in past years. The results will help you decide how hot, cold, wet, or windy it might be!

Date:

Astronomy

Jan. 14, 2014 Rise Set
Actual Time 6:53 AM PST 5:04 PM PST
Civil Twilight 6:26 AM PST 5:31 PM PST
Nautical Twilight 5:55 AM PST 6:01 PM PST
Astronomical Twilight 5:26 AM PST 6:31 PM PST
Moon 4:11 PM PST (1/14) 5:32 AM PST (1/14)
Length of Visible Light 11h 04m
Length of Day
10h 10m
Waxing Gibbous, 98% of the Moon is Illuminated
Jan 14
Waxing Gibbous
Jan 15
Full
Jan 23
Last Quarter
Jan 30
New
Feb 6
First Quarter

Hourly Weather History & Observations

Time (PST) Temp. Windchill Dew Point Humidity Pressure Visibility Wind Dir Wind Speed Gust Speed Precip Events Conditions
12:54 AM 39.0 °F - 19.9 °F 46% 30.25 in 10.0 mi Calm Calm - N/A   Clear
1:54 AM 36.0 °F 32.1 °F 19.9 °F 52% 30.25 in 10.0 mi West 4.6 mph - N/A   Clear
2:54 AM 37.0 °F - 19.9 °F 50% 30.26 in 10.0 mi Calm Calm - N/A   Clear
3:54 AM 36.0 °F - 19.9 °F 52% 30.25 in 10.0 mi Calm Calm - N/A   Clear
4:54 AM 35.1 °F - 19.9 °F 54% 30.25 in 10.0 mi Calm Calm - N/A   Clear
5:54 AM 35.1 °F 32.2 °F 19.9 °F 54% 30.27 in 10.0 mi South 3.5 mph - N/A   Clear
6:54 AM 53.1 °F - 18.0 °F 25% 30.27 in 9.0 mi NNE 4.6 mph - N/A   Clear
7:54 AM 60.1 °F - 19.0 °F 20% 30.28 in 9.0 mi NE 8.1 mph - N/A   Clear
8:54 AM 69.1 °F - 18.0 °F 14% 30.29 in 9.0 mi East 11.5 mph - N/A   Clear
9:54 AM 79.0 °F - 9.0 °F 7% 30.28 in 8.0 mi NE 13.8 mph 20.7 mph N/A   Clear
10:54 AM 82.0 °F - 6.1 °F 6% 30.26 in 9.0 mi NE 13.8 mph - N/A   Clear
11:54 AM 84.9 °F - 3.0 °F 4% 30.22 in 10.0 mi NE 9.2 mph - N/A   Clear
12:54 PM 88.0 °F - 1.0 °F 4% 30.18 in 9.0 mi NE 9.2 mph - N/A   Clear
1:54 PM 89.1 °F - -4.0 °F 4% 30.16 in 8.0 mi NE 13.8 mph - N/A   Clear
2:54 PM 87.1 °F - 1.0 °F 4% 30.16 in 8.0 mi NNE 10.4 mph 19.6 mph N/A   Clear
3:54 PM 86.0 °F - 1.0 °F 4% 30.15 in 8.0 mi NNE 8.1 mph - N/A   Clear
4:54 PM 80.1 °F - 3.9 °F 5% 30.16 in 7.0 mi NNE 5.8 mph - N/A   Clear
5:54 PM 66.9 °F - 27.0 °F 22% 30.18 in 9.0 mi WNW 3.5 mph - N/A   Clear
6:54 PM 57.0 °F - 19.9 °F 24% 30.19 in 9.0 mi Calm Calm - N/A   Clear
7:54 PM 57.0 °F - 12.0 °F 17% 30.20 in 8.0 mi NNE 5.8 mph - N/A   Clear
8:54 PM 60.1 °F - 10.0 °F 14% 30.21 in 10.0 mi NE 3.5 mph - N/A   Clear
9:54 PM 62.1 °F - 10.0 °F 13% 30.20 in 10.0 mi NE 8.1 mph - N/A   Clear
10:54 PM 63.0 °F - 10.0 °F 13% 30.20 in 10.0 mi ENE 8.1 mph - N/A   Clear
11:54 PM 55.9 °F - 12.0 °F 18% 30.20 in 10.0 mi Calm Calm - N/A   Clear